sat.trackr.live / text

‹ back to catalog

STARLINK-31763

NORAD 59623 · 2024-080Y

PAYLOAD ACTIVE UNKNOWN

§ Identity

Operator
Country
US
Launch date
2024-04-28
Launch site
AFETR
Launch vehicle
Mass (kg)
RCS (m²)

Purposes: comms

External: N2YO · Heavens-Above · Gunter

§ Orbital elements

Epoch: 2026-09-20T15:25:06.237984Z

Period
94.27 min
Inclination
43.0023°
Eccentricity
0.0001107
Mean motion
15.27554312 rev/d
Perigee alt
482.4 km
Apogee alt
483.9 km
Semi-major
6,861.3 km
B*
-1.0346e-4
RAAN
17.2981°
Arg perigee
208.3718°
Mean anomaly
151.7074°
Rev number
13,434

§ Raw data

STARLINK-317631 59623U 24080Y   26263.64243331 -.00003105  00000+0 -10346-3 0  99912 59623  43.0023  17.2981 0001107 208.3718 151.7074 15.27554312134340

JSON: /api/v1/satellites/59623 · /tle

For live sub-satellite position, see the globe view (requires WebGL).

§ Visibility from observer

Set your observer location to see the next 7 days of passes ≥ 10°. The values pass through the URL so the page stays shareable.

No JS? Fill the form by hand. The geolocation button needs JavaScript.